H1 CPF 2 isr 2024 2 6 22 37 1 irnss1f NONE
H2 1601501 3306 41384 2024 2 6 23 59 42 2024 2 13 23 44 42 900 1 1 0 0 0 1
H9
10 0 60349  43182.000000  0      35416897.132      22675738.366      -1828933.800
10 0 60349  44082.000000  0      35411256.358      22683891.748      -1929716.308
10 0 60349  44982.000000  0      35405983.107      22692293.037      -2022153.909
10 0 60349  45882.000000  0      35401156.243      22700919.008      -2105849.164
10 0 60349  46782.000000  0      35396853.787      22709738.076      -2180442.845
10 0 60349  47682.000000  0      35393151.588      22718710.343      -2245615.452
10 0 60349  48582.000000  0      35390122.003      22727787.819      -2301088.561
10 0 60349  49482.000000  0      35387832.611      22736914.795      -2346625.974
10 0 60349  50382.000000  0      35386344.977      22746028.382      -2382034.684
10 0 60349  51282.000000  0      35385713.488      22755059.196      -2407165.652
10 0 60349  52182.000000  0      35385984.292      22763932.187      -2421914.379
10 0 60349  53082.000000  0      35387194.343      22772567.592      -2426221.290
10 0 60349  53982.000000  0      35389370.582      22780882.011      -2420071.916
10 0 60349  54882.000000  0      35392529.261      22788789.561      -2403496.882
10 0 60349  55782.000000  0      35396675.426      22796203.128      -2376571.696
10 0 60349  56682.000000  0      35401802.569      22803035.660      -2339416.355
10 0 60349  57582.000000  0      35407892.455      22809201.499      -2292194.749
10 0 60349  58482.000000  0      35414915.129      22814617.736      -2235113.886
10 0 60349  59382.000000  0      35422829.100      22819205.539      -2168422.938
10 0 60349  60282.000000  0      35431581.711      22822891.462      -2092412.105
10 0 60349  61182.000000  0      35441109.673      22825608.697      -2007411.311
10 0 60349  62082.000000  0      35451339.775      22827298.243      -1913788.739
10 0 60349  62982.000000  0      35462189.743      22827909.991      -1811949.204
10 0 60349  63882.000000  0      35473569.246      22827403.680      -1702332.385
10 0 60349  64782.000000  0      35485381.025      22825749.733      -1585410.906
10 0 60349  65682.000000  0      35497522.135      22822929.940      -1461688.294
10 0 60349  66582.000000  0      35509885.274      22818937.983      -1331696.807
10 0 60349  67482.000000  0      35522360.184      22813779.791      -1195995.148
10 0 60349  68382.000000  0      35534835.099      22807473.719      -1055166.084
10 0 60349  69282.000000  0      35547198.214      22800050.550       -909813.954
10 0 60349  70182.000000  0      35559339.156      22791553.309       -760562.107
10 0 60349  71082.000000  0      35571150.437      22782036.898       -608050.259
10 0 60349  71982.000000  0      35582528.858      22771567.560       -452931.790
10 0 60349  72882.000000  0      35593376.841      22760222.172       -295870.981
10 0 60349  73782.000000  0      35603603.687      22748087.376       -137540.223
10 0 60349  74682.000000  0      35613126.709      22735258.571         21382.820
10 0 60349  75582.000000  0      35621872.249      22721838.774        180218.056
10 0 60349  76482.000000  0      35629776.557      22707937.361        338285.824
10 0 60349  77382.000000  0      35636786.502      22693668.728        494909.748
10 0 60349  78282.000000  0      35642860.135      22679150.867        649419.581
10 0 60349  79182.000000  0      35647967.062      22664503.894        801154.016
10 0 60349  80082.000000  0      35652088.650      22649848.557        949463.469
10 0 60349  80982.000000  0      35655218.045      22635304.730       1093712.807
10 0 60349  81882.000000  0      35657360.014      22620989.934       1233284.026
10 0 60349  82782.000000  0      35658530.606      22607017.893       1367578.857
10 0 60349  83682.000000  0      35658756.651      22593497.164       1496021.295
10 0 60349  84582.000000  0      35658075.094      22580529.840       1618060.044
10 0 60349  85482.000000  0      35656532.178      22568210.365       1733170.859
10 0 60349  86382.000000  0      35654182.509      22556624.467       1840858.785
10 0 60350    882.000000  0      35651087.985      22545848.233       1940660.269
10 0 60350   1782.000000  0      35647316.643      22535947.329       2032145.158
10 0 60350   2682.000000  0      35642941.414      22526976.394       2114918.546
10 0 60350   3582.000000  0      35638038.836      22518978.603       2188622.498
10 0 60350   4482.000000  0      35632687.719      22511985.397       2252937.604
10 0 60350   5382.000000  0      35626967.808      22506016.413       2307584.390
10 0 60350   6282.000000  0      35620958.456      22501079.579       2352324.558
10 0 60350   7182.000000  0      35614737.325      22497171.388       2386962.064
10 0 60350   8082.000000  0      35608379.154      22494277.349       2411344.007
10 0 60350   8982.000000  0      35601954.596      22492372.592       2425361.354
10 0 60350   9882.000000  0      35595529.157      22491422.625       2428949.474
10 0 60350  10782.000000  0      35589162.245      22491384.228       2422088.479
10 0 60350  11682.000000  0      35582906.357      22492206.460       2404803.391
10 0 60350  12582.000000  0      35576806.402      22493831.773       2377164.099
10 0 60350  13482.000000  0      35570899.187      22496197.197       2339285.137
10 0 60350  14382.000000  0      35565213.057      22499235.597       2291325.263
10 0 60350  15282.000000  0      35559767.713      22502876.950       2233486.847
10 0 60350  16182.000000  0      35554574.195      22507049.647       2166015.070
10 0 60350  17082.000000  0      35549635.032      22511681.783       2089196.929
10 0 60350  17982.000000  0      35544944.569      22516702.409       2003360.064
10 0 60350  18882.000000  0      35540489.440      22522042.741       1908871.396
10 0 60350  19782.000000  0      35536249.197      22527637.278       1806135.596
10 0 60350  20682.000000  0      35532197.076      22533424.845       1695593.378
10 0 60350  21582.000000  0      35528300.881      22539349.503       1577719.626
10 0 60350  22482.000000  0      35524523.979      22545361.349       1453021.376
10 0 60350  23382.000000  0      35520826.372      22551417.162       1322035.634
10 0 60350  24282.000000  0      35517165.842      22557480.904       1185327.065
10 0 60350  25182.000000  0      35513499.132      22563524.061       1043485.554
10 0 60350  26082.000000  0      35509783.154      22569525.817        897123.640
10 0 60350  26982.000000  0      35505976.189      22575473.064        746873.849
10 0 60350  27882.000000  0      35502039.063      22581360.248        593385.935
10 0 60350  28782.000000  0      35497936.275      22587189.053        437324.026
10 0 60350  29682.000000  0      35493637.054      22592967.933        279363.715
10 0 60350  30582.000000  0      35489116.326      22598711.504        120189.085
10 0 60350  31482.000000  0      35484355.570      22604439.798        -39510.307
10 0 60350  32382.000000  0      35479343.551      22610177.414       -199042.468
10 0 60350  33282.000000  0      35474076.908      22615952.563       -357716.029
10 0 60350  34182.000000  0      35468560.593      22621796.036       -514843.298
10 0 60350  35082.000000  0      35462808.146      22627740.116       -669743.302
10 0 60350  35982.000000  0      35456841.802      22633817.455       -821744.795
10 0 60350  36882.000000  0      35450692.431      22640059.930       -970189.224
10 0 60350  37782.000000  0      35444399.301      22646497.514      -1114433.635
10 0 60350  38682.000000  0      35438009.674      22653157.176      -1253853.504
10 0 60350  39582.000000  0      35431578.241      22660061.836      -1387845.488
10 0 60350  40482.000000  0      35425166.407      22667229.389      -1515830.072
10 0 60350  41382.000000  0      35418841.429      22674671.825      -1637254.114
10 0 60350  42282.000000  0      35412675.436      22682394.451      -1751593.265
10 0 60350  43182.000000  0      35406744.334      22690395.239      -1858354.249
10 0 60350  44082.000000  0      35401126.619      22698664.313      -1957077.009
10 0 60350  44982.000000  0      35395902.123      22707183.577      -2047336.682
10 0 60350  45882.000000  0      35391150.701      22715926.514      -2128745.431
10 0 60350  46782.000000  0      35386950.897      22724858.131      -2200954.091
10 0 60350  47682.000000  0      35383378.601      22733935.087      -2263653.650
10 0 60350  48582.000000  0      35380505.722      22743105.971      -2316576.537
10 0 60350  49482.000000  0      35378398.902      22752311.751      -2359497.733
10 0 60350  50382.000000  0      35377118.296      22761486.374      -2392235.685
10 0 60350  51282.000000  0      35376716.430      22770557.520      -2414653.025
10 0 60350  52182.000000  0      35377237.161      22779447.485      -2426657.096
10 0 60350  53082.000000  0      35378714.769      22788074.191      -2428200.280
10 0 60350  53982.000000  0      35381173.174      22796352.299      -2419280.128
10 0 60350  54882.000000  0      35384625.309      22804194.417      -2399939.294
10 0 60350  55782.000000  0      35389072.661      22811512.372      -2370265.275
10 0 60350  56682.000000  0      35394504.978      22818218.532      -2330389.955
10 0 60350  57582.000000  0      35400900.155      22824227.154      -2280488.969
10 0 60350  58482.000000  0      35408224.304      22829455.740      -2220780.870
10 0 60350  59382.000000  0      35416432.001      22833826.372      -2151526.128
10 0 60350  60282.000000  0      35425466.716      22837267.006      -2073025.945
10 0 60350  61182.000000  0      35435261.412      22839712.703      -1985620.905
10 0 60350  62082.000000  0      35445739.305      22841106.781      -1889689.466
10 0 60350  62982.000000  0      35456814.790      22841401.858      -1785646.290
10 0 60350  63882.000000  0      35468394.483      22840560.777      -1673940.433
99